• Em Portugal
  • Lista de países
  • Para 7 dias
  • Temperatura da água
  • Mapas de satélite
  • Mapa do tempo
  • Widgets de tempo
  • user-avatar
    Iniciar Sessão

    Previsão horária em Sittwe

    Hoje, 15 Dezembro, Sexta-feira

    Tempo Temperatura Precipitação Vento Pressão Humidade
    00:00 +17°C° 0 mm 6 m/s 760 mmHg 81%
    01:00 +16°C° 0 mm 6 m/s 760 mmHg 81%
    02:00 +16°C° 0 mm 6 m/s 759 mmHg 80%
    03:00 +15°C° 0 mm 6 m/s 759 mmHg 79%
    04:00 +15°C° 0 mm 6 m/s 759 mmHg 79%
    05:00 +15°C° 0 mm 6 m/s 759 mmHg 78%
    06:00 +15°C° 0 mm 5 m/s 760 mmHg 77%
    07:00 +17°C° 0 mm 5 m/s 760 mmHg 70%
    08:00 +21°C° 0 mm 4 m/s 760 mmHg 63%
    09:00 +23°C° 0 mm 4 m/s 761 mmHg 56%
    10:00 +27°C° 0 mm 4 m/s 760 mmHg 48%
    11:00 +29°C° 0 mm 4 m/s 760 mmHg 41%
    12:00 +34°C° 0 mm 3 m/s 760 mmHg 33%
    13:00 +33°C° 0 mm 4 m/s 760 mmHg 34%
    14:00 +33°C° 0 mm 5 m/s 759 mmHg 34%
    15:00 +32°C° 0 mm 6 m/s 759 mmHg 35%
    16:00 +29°C° 0 mm 6 m/s 759 mmHg 45%
    17:00 +26°C° 0 mm 7 m/s 759 mmHg 55%
    18:00 +22°C° 0 mm 8 m/s 759 mmHg 62%
    19:00 +21°C° 0 mm 8 m/s 760 mmHg 66%
    20:00 +21°C° 0 mm 8 m/s 760 mmHg 69%
    21:00 +20°C° 0 mm 7 m/s 761 mmHg 73%
    22:00 +18°C° 0 mm 7 m/s 761 mmHg 75%
    23:00 +17°C° 0 mm 7 m/s 761 mmHg 77%

    Amanhã, 16 Dezembro, Sábado

    Tempo Temperatura Precipitação Vento Pressão Humidade
    00:00 +17°C° 0 mm 7 m/s 761 mmHg 80%
    01:00 +16°C° 0 mm 7 m/s 760 mmHg 81%
    02:00 +16°C° 0 mm 7 m/s 760 mmHg 82%
    03:00 +15°C° 0 mm 6 m/s 760 mmHg 83%
    04:00 +15°C° 0 mm 6 m/s 760 mmHg 84%
    05:00 +15°C° 0 mm 6 m/s 760 mmHg 84%
    06:00 +14°C° 0 mm 6 m/s 760 mmHg 85%
    07:00 +17°C° 0 mm 5 m/s 761 mmHg 76%
    08:00 +21°C° 0 mm 5 m/s 761 mmHg 67%
    09:00 +23°C° 0 mm 5 m/s 762 mmHg 58%
    10:00 +27°C° 0 mm 4 m/s 761 mmHg 52%
    11:00 +30°C° 0 mm 3 m/s 761 mmHg 45%
    12:00 +34°C° 0 mm 3 m/s 761 mmHg 39%
    13:00 +33°C° 0 mm 3 m/s 760 mmHg 39%
    14:00 +33°C° 0 mm 4 m/s 760 mmHg 39%
    15:00 +32°C° 0 mm 4 m/s 759 mmHg 40%
    16:00 +29°C° 0 mm 5 m/s 760 mmHg 48%
    17:00 +26°C° 0 mm 5 m/s 760 mmHg 57%
    18:00 +22°C° 0 mm 5 m/s 760 mmHg 66%
    19:00 +22°C° 0 mm 5 m/s 761 mmHg 68%
    20:00 +21°C° 0 mm 5 m/s 761 mmHg 70%
    21:00 +20°C° 0 mm 5 m/s 762 mmHg 73%
    22:00 +20°C° 0 mm 5 m/s 762 mmHg 74%
    23:00 +19°C° 0 mm 4 m/s 762 mmHg 75%

    Depois de amanhã, 17 Dezembro, Domingo

    Tempo Temperatura Precipitação Vento Pressão Humidade
    00:00 +19°C° 0 mm 4 m/s 762 mmHg 76%
    01:00 +18°C° 0 mm 3 m/s 762 mmHg 76%
    02:00 +18°C° 0 mm 3 m/s 761 mmHg 76%
    03:00 +18°C° 0 mm 3 m/s 761 mmHg 77%
    04:00 +18°C° 0 mm 3 m/s 761 mmHg 76%
    05:00 +18°C° 0 mm 3 m/s 761 mmHg 76%
    06:00 +17°C° 0 mm 3 m/s 761 mmHg 76%
    07:00 +20°C° 0 mm 3 m/s 762 mmHg 68%
    08:00 +24°C° 0 mm 3 m/s 763 mmHg 60%
    09:00 +26°C° 0 mm 3 m/s 763 mmHg 52%
    10:00 +29°C° 0 mm 2 m/s 763 mmHg 47%
    11:00 +32°C° 0 mm 1 m/s 763 mmHg 42%
    12:00 +35°C° 0 mm 1 m/s 762 mmHg 36%
    13:00 +34°C° 0 mm 1 m/s 762 mmHg 37%
    14:00 +34°C° 0 mm 2 m/s 761 mmHg 38%
    15:00 +34°C° 0 mm 2 m/s 760 mmHg 40%
    16:00 +30°C° 0 mm 2 m/s 761 mmHg 48%
    17:00 +28°C° 0 mm 3 m/s 761 mmHg 56%
    18:00 +26°C° 0 mm 3 m/s 761 mmHg 65%
    19:00 +25°C° 0 mm 3 m/s 762 mmHg 67%
    20:00 +24°C° 0 mm 3 m/s 762 mmHg 69%
    21:00 +22°C° 0 mm 3 m/s 763 mmHg 71%
    22:00 +22°C° 0 mm 3 m/s 762 mmHg 73%
    23:00 +21°C° 0 mm 3 m/s 762 mmHg 75%

    18 Dezembro, Segunda-feira

    Tempo Temperatura Precipitação Vento Pressão Humidade
    00:00 +20°C° 0 mm 3 m/s 762 mmHg 76%
    01:00 +20°C° 0 mm 3 m/s 762 mmHg 77%
    02:00 +20°C° 0 mm 3 m/s 761 mmHg 78%
    03:00 +19°C° 0 mm 3 m/s 761 mmHg 80%
    04:00 +19°C° 0 mm 3 m/s 761 mmHg 80%
    05:00 +19°C° 0 mm 3 m/s 761 mmHg 81%
    06:00 +19°C° 0 mm 3 m/s 762 mmHg 81%
    07:00 +21°C° 0 mm 3 m/s 762 mmHg 74%
    08:00 +24°C° 0 mm 3 m/s 763 mmHg 66%
    09:00 +27°C° 0 mm 3 m/s 763 mmHg 59%
    10:00 +29°C° 0 mm 3 m/s 763 mmHg 52%
    11:00 +31°C° 0 mm 3 m/s 762 mmHg 46%
    12:00 +34°C° 0 mm 2 m/s 762 mmHg 40%
    13:00 +34°C° 0 mm 3 m/s 761 mmHg 40%
    14:00 +34°C° 0 mm 3 m/s 761 mmHg 40%
    15:00 +34°C° 0 mm 4 m/s 760 mmHg 40%
    16:00 +30°C° 0 mm 4 m/s 760 mmHg 50%
    17:00 +28°C° 0 mm 4 m/s 761 mmHg 60%
    18:00 +25°C° 0 mm 5 m/s 761 mmHg 70%
    19:00 +23°C° 0 mm 5 m/s 761 mmHg 72%
    20:00 +22°C° 0 mm 5 m/s 762 mmHg 75%
    21:00 +22°C° 0 mm 5 m/s 763 mmHg 78%
    22:00 +21°C° 0 mm 5 m/s 762 mmHg 79%
    23:00 +20°C° 0 mm 5 m/s 762 mmHg 80%

    19 Dezembro, Terça-feira

    Tempo Temperatura Precipitação Vento Pressão Humidade
    00:00 +20°C° 0 mm 5 m/s 762 mmHg 82%
    01:00 +20°C° 0 mm 4 m/s 762 mmHg 82%
    02:00 +19°C° 0 mm 4 m/s 761 mmHg 83%
    03:00 +19°C° 0 mm 4 m/s 761 mmHg 83%
    04:00 +19°C° 0 mm 4 m/s 761 mmHg 83%
    05:00 +19°C° 0 mm 3 m/s 761 mmHg 84%
    06:00 +18°C° 0 mm 3 m/s 762 mmHg 84%
    07:00 +21°C° 0 mm 3 m/s 762 mmHg 76%
    08:00 +25°C° 0 mm 2 m/s 763 mmHg 67%
    09:00 +27°C° 0 mm 2 m/s 763 mmHg 59%
    10:00 +29°C° 0 mm 2 m/s 763 mmHg 54%
    11:00 +32°C° 0 mm 1 m/s 763 mmHg 49%
    12:00 +34°C° 0 mm 1 m/s 762 mmHg 43%
    13:00 +34°C° 0 mm 2 m/s 762 mmHg 44%
    14:00 +34°C° 0 mm 2 m/s 761 mmHg 44%
    15:00 +33°C° 0 mm 3 m/s 760 mmHg 45%
    16:00 +30°C° 0 mm 3 m/s 761 mmHg 52%
    17:00 +27°C° 0 mm 3 m/s 761 mmHg 60%
    18:00 +25°C° 0 mm 4 m/s 761 mmHg 67%
    19:00 +23°C° 0 mm 4 m/s 762 mmHg 69%
    20:00 +23°C° 0 mm 4 m/s 762 mmHg 70%
    21:00 +22°C° 0 mm 4 m/s 763 mmHg 72%
    22:00 +22°C° 0 mm 4 m/s 763 mmHg 73%
    23:00 +21°C° 0 mm 4 m/s 762 mmHg 75%

    20 Dezembro, Quarta-feira

    Tempo Temperatura Precipitação Vento Pressão Humidade
    00:00 +21°C° 0 mm 3 m/s 762 mmHg 76%
    01:00 +20°C° 0 mm 3 m/s 762 mmHg 77%
    02:00 +20°C° 0 mm 3 m/s 762 mmHg 78%
    03:00 +20°C° 0 mm 2 m/s 762 mmHg 78%
    04:00 +20°C° 0 mm 2 m/s 762 mmHg 79%
    05:00 +19°C° 0 mm 2 m/s 762 mmHg 80%
    06:00 +19°C° 0 mm 2 m/s 762 mmHg 81%
    07:00 +21°C° 0 mm 2 m/s 763 mmHg 73%
    08:00 +25°C° 0 mm 2 m/s 764 mmHg 65%
    09:00 +27°C° 0 mm 2 m/s 764 mmHg 57%
    10:00 +30°C° 0 mm 2 m/s 764 mmHg 51%
    11:00 +32°C° 0 mm 1 m/s 763 mmHg 44%
    12:00 +34°C° 0 mm 1 m/s 763 mmHg 38%
    13:00 +34°C° 0 mm 1 m/s 762 mmHg 39%
    14:00 +34°C° 0 mm 2 m/s 762 mmHg 39%
    15:00 +32°C° 0 mm 2 m/s 761 mmHg 40%
    16:00 +30°C° 0 mm 3 m/s 761 mmHg 51%
    17:00 +27°C° 0 mm 3 m/s 761 mmHg 61%
    18:00 +25°C° 0 mm 4 m/s 762 mmHg 72%
    19:00 +23°C° 0 mm 4 m/s 762 mmHg 74%
    20:00 +22°C° 0 mm 4 m/s 762 mmHg 77%
    21:00 +22°C° 0 mm 4 m/s 763 mmHg 79%
    22:00 +21°C° 0 mm 4 m/s 763 mmHg 79%
    23:00 +21°C° 0 mm 4 m/s 762 mmHg 79%
    Mostrar mais